Regional Weather Roundup
Issued by NWS San Angelo, TX

Home | Current Version | Previous Version | Text Only | Print | Product List | Glossary On
Versions: 1 2 3 4 5 6 7 8 9 10 11 12 13 14 15 16 17 18 19 20 21 22 23 24 25 26 27 28 29 30 31 32 33 34 35 36 37 38 39 40 41 42 43 44 45 46 47 48 49 50
000
ASUS44 KSJT 151210
RWRSJT
WEST CENTRAL TEXAS REGIONAL WEATHER ROUNDUP
NATIONAL WEATHER SERVICE SAN ANGELO TX
600 AM CST FRI DEC 15 2017

NOTE: "FAIR" INDICATES FEW OR NO CLOUDS BELOW 12,000 FEET WITH NO
SIGNIFICANT WEATHER AND/OR OBSTRUCTIONS TO VISIBILITY.

TXZ049-054-064>066-071>073-076>078-098-099-113-114-127-128-139-140-
154-155-168>170-151300
...LOCATIONS ACROSS WEST CENTRAL TEXAS...

CITY           SKY/WX    TMP DP  RH WIND       PRES   REMARKS
SAN ANGELO     PTCLDY    34  24  67 W6        30.32R WCI  29
ABILENE        CLEAR     26  22  84 CALM      30.32R
DYESS AFB      CLEAR     33  24  69 W5        30.32R WCI  29
JUNCTION       PTCLDY    39  29  67 CALM      30.29S
SWEETWATER     CLEAR     33  25  72 NW6       30.34R WCI  27
BROWNWOOD      CLOUDY    28  23  80 CALM      30.31R
COLEMAN        MOSUNNY   37  26  65 NW5       30.31R WCI  33
SONORA         PTCLDY    34  27  75 CALM      30.35S
OZONA          FAIR      34  28  80 N3        30.33F
BRADY          NOT AVBL
$$

TEXAS PANHANDLE/OKLAHOMA PANHANDLE

CITY           SKY/WX    TMP DP  RH WIND       PRES   REMARKS
AMARILLO       CLEAR     24  22  91 W8        30.27F WCI  15
BORGER         CLEAR     27  22  81 SW9       30.27F WCI  18
CANADIAN       CLEAR     23  20  87 S5        30.28S WCI  17
DALHART        CLEAR     23  21  92 W12       30.25F WCI  12
DUMAS          SUNNY     22  18  84 W8        30.25F WCI  13
GUYMON         NOT AVBL
HEREFORD       CLOUDY    19  17  93 MISG      30.29F
PAMPA          SUNNY     22  19  89 W7        30.27S WCI  13
PERRYTON       CLOUDY    23  19  85 W9        30.23F WCI  13
$$

SOUTHERN PANHANDLE/SOUTH PLAINS/ROLLING PLAINS

CITY           SKY/WX    TMP DP  RH WIND       PRES   REMARKS
LUBBOCK        CLEAR     24  20  84 W5        30.30S WCI  18
SNYDER         CLEAR     33  24  70 N12       30.33R WCI  24
CHILDRESS      CLEAR     28  22  78 NW8       30.31S WCI  20
SEMINOLE       SUNNY     26  23  89 NW6       30.34S WCI  19
$$

PERMIAN BASIN

CITY           SKY/WX    TMP DP  RH WIND       PRES   REMARKS
MIDLAND        PTCLDY    33  26  75 N6        30.32S WCI  28
ODESSA         CLOUDY    32  27  81 N8        30.33S WCI  25
WINK           CLEAR     29  25  85 W9        30.34R WCI  20
$$

FAR WEST/SOUTHWEST MOUNTAINS/TRANS PECOS

CITY           SKY/WX    TMP DP  RH WIND       PRES   REMARKS
ALPINE         SUNNY     28  22  77 N6        30.36S WCI  22
DRYDEN           N/A     43  31  62 N6        30.30R WCI  39
EL PASO        PTCLDY    36  21  54 N3        30.30R
FORT STOCKTON  NOT AVBL
GUADALUPE PASS MOCLDY    31  25  78 NE24      30.30R WCI  17
MARFA          NOT AVBL
PECOS          SUNNY     29  26  87 NW6       30.36F WCI  23
$$

DALLAS/FORT WORTH METROPLEX

CITY           SKY/WX    TMP DP  RH WIND       PRES   REMARKS
DFW AIRPORT    PTCLDY    40  28  62 NW12      30.26R WCI  33
FTW MEACHAM    PTCLDY    39  28  64 NW9       30.28R WCI  33
DAL-EXECUTIVE  CLEAR     39  29  67 W7        30.25R WCI  34
GRAND PRAIRIE  CLEAR     40  27  59 W3        30.29R
ADDISON        CLEAR     37  28  70 W3        30.27R
MESQUITE       SUNNY     32  27  81 CALM      30.27R
LANCASTER      SUNNY     33  27  78 W3        30.28R
$$

NORTH CENTRAL TEXAS

CITY           SKY/WX    TMP DP  RH WIND       PRES   REMARKS
SHRMAN/DENISON SUNNY     29  25  83 W3        30.26S
GAINESVILLE    CLEAR     33  27  78 NW10      30.29R WCI  24
BRIDGEPORT     MOSUNNY   38  31  76 NW8       30.31R WCI  32
DENTON         CLEAR     32  27  81 NW6       30.27R WCI  26
WAXAHACHIE     SUNNY     35  30  81 W6        30.28R WCI  30
GRANBURY       CLOUDY    33  26  75 W5        30.31R WCI  28
$$

WESTERN NORTH TEXAS

CITY           SKY/WX    TMP DP  RH WIND       PRES   REMARKS
WICHITA FALLS  CLEAR     32  25  75 NW12      30.30R WCI  23
VERNON         SUNNY     33  22  65 NW6       30.33R WCI  27
BRECKENRIDGE   SUNNY     35  26  70 N3        30.31R
COMANCHE       PTCLDY    37  28  68 NW9       30.30R WCI  30
$$

CENTRAL AND SOUTH CENTRAL TEXAS

CITY           SKY/WX    TMP DP  RH WIND       PRES   REMARKS
AUSTIN/BERGSTM CLOUDY    47  30  51 N9        30.25R
WACO           CLOUDY    31  27  85 CALM      30.27R
HILLSBORO      MOSUNNY   36  27  69 CALM      30.27R
TEMPLE         CLOUDY    39  29  67 NW5       30.27S WCI  36
KILLEEN-GRAY   CLEAR     41  27  57 W7        30.26R WCI  36
FORT HOOD      PTCLDY    39  28  63 NW8       30.23S WCI  34
GEORGETOWN     MOCLDY    43  29  57 NW8       30.28R WCI  38
LAGO VISTA     FAIR      44  29  56 N7        30.25R WCI  40
SAN MARCOS     CLOUDY    47  31  53 N9        30.26R
NEW BRAUNFELS  CLOUDY    47  34  60 N7        30.24R
RANDOLPH AFB   CLOUDY    46  35  65 N8        30.25R
SAN ANTONIO    MOCLDY    47  32  56 N5        30.26R
STINSON        CLOUDY    50  33  52 N7        30.25R
PLEASANTON     NOT AVBL
LA GRANGE      CLOUDY    49  32  51 N5        30.21R
GIDDINGS       PTSUNNY   46  29  51 N7        30.24R
$$

EAST TEXAS

CITY           SKY/WX    TMP DP  RH WIND       PRES   REMARKS
PARIS          PTCLDY    31  26  82 W3        30.24R
CLARKSVILLE    NOT AVBL
TYLER          CLOUDY    36  28  73 CALM      30.24S
LONGVIEW       CLOUDY    37  31  78 NW3       30.24R
PALESTINE      CLOUDY    39  31  74 NW3       30.26S
NACOGDOCHES    CLOUDY    40  31  70 N5        30.24R WCI  37
$$

TEXAS HILL COUNTRY AND EDWARDS PLATEAU

CITY           SKY/WX    TMP DP  RH WIND       PRES   REMARKS
LLANO          MOSUNNY   39  30  70 CALM      30.32S
HORSESHOE BAY  FAIR      44  31  60 CALM      30.28R
KERRVILLE      CLOUDY    42  28  56 NW3       30.27R
FREDERICKSBRG  CLOUDY    41  28  58 N6        30.28R WCI  37
ROCKSPRINGS    NOT AVBL
HONDO          CLOUDY    50  32  50 N7        30.27R
UVALDE         CLOUDY    47  36  65 CALM      30.29S
DEL RIO        CLOUDY    47  39  74 NW6       30.30S
$$

SOUTHEAST TEXAS

CITY           SKY/WX    TMP DP  RH WIND       PRES   REMARKS
COLLEGE STN    CLOUDY    47  30  51 N13       30.22S
CALDWELL       CLOUDY    46  29  51 N9G18     30.24R
CROCKETT         N/A     41  28  60 N5        30.25F WCI  38
BRENHAM        CLOUDY    47  32  55 N7        30.23R
HUNTSVILLE     MOCLDY    44  31  60 N7        30.20F
CONROE         CLOUDY    46  31  55 VRB7      30.19S
HOUSTON BUSH   CLOUDY    49  33  54 N12       30.19R
HOUSTON HOBBY  CLOUDY    50  34  54 N13       30.18R
PERLAND        CLOUDY    51  34  52 N10       30.19R
WHARTON        CLOUDY    48  32  53 N10       30.19R
$$

THE UPPER TEXAS COAST

CITY           SKY/WX    TMP DP  RH WIND       PRES   REMARKS
ORANGE         CLOUDY    47  40  77 N7        30.17R
PORT ARTHUR    CLOUDY    48  36  63 N14       30.15R
GALVESTON      CLOUDY    53  39  59 N21G28    30.16R
ANGLETON       LGT RAIN  51  35  54 N16       30.16R
BAY CITY       CLOUDY    52  35  53 N16G22    30.16R
$$

TEXAS COASTAL BEND, RIO GRANDE PLAINS DEEP SOUTH TEXAS

CITY           SKY/WX    TMP DP  RH WIND       PRES   REMARKS
VICTORIA       LGT RAIN  47  37  68 N10       30.21R
BEEVILLE       LGT RAIN  46  38  74 N13G18    30.23R
ROCKPORT       LGT RAIN  50  40  68 N20       30.18R
PORT ARANSAS   NOT AVBL
PORT LAVACA    LGT RAIN  50  36  60 N12       30.19R
CORPUS CHRISTI LGT RAIN  49  41  74 N20       30.18R
KINGSVILLE NAS LGT RAIN  50  46  86 N13       30.19R
COTULLA        LGT RAIN  47  42  83 NW5       30.27S
LAREDO           N/A    N/A N/A N/A NW17      30.27
BROWNSVILLE    CLOUDY    57  51  80 N13G22    30.12R
PORT ISABEL    CLOUDY    56  51  84 N16       30.11R
HEBBRONVILLE   LGT RAIN  46  41  81 N17       30.21S WCI  39
MCALLEN        CLOUDY    53  47  79 N18G30    30.16R
WESLACO        DRIZZLE   50  46  85 N15G26    30.14R
FALFURRIAS     CLOUDY    49  44  81 N10       30.19R
EDINBURG       DRIZZLE   51  46  84 N15G21    30.18R
$$




USA.gov is the U.S. government's official web portal to all federal, state and local government web resources and services.